Location: Unnamed
(49.2205°N, 28.4120°E)
Time: 14:53:14
(UTC+03:00)

ISS - Pass Details

Date: 22 April 2026
Orbit: 414 x 424 km, 51.6° (Epoch: 18 May)

Event Time Altitude Azimuth Distance (km) Brightness Sun altitude
Exits shadow 04:55:57 14° 215° (SW) 1,265 -1.9 -10.4°
Maximum altitude 04:58:30 39° 148° (SSE) 643 -2.8 -10.1°
Drops below altitude 10° 05:01:41 10° 78° (ENE) 1,508 0.4 -9.6°
Sets 05:03:52 0° 71° (ENE) 2,378 2.0 -9.3°
